When you browse on this site, cookies collect data to enhance your experience and personalize the content and advertising you see.
Visit our Privacy Policy to learn more. By continuing to use the site, you agree to this use of cookies and data.
  • En España
  • Lista de países
  • Para 7 días
  • Temperatura del agua
  • Mapa Satelital
  • El tiempo en el mapa
  • Informadores
  • user-avatar
    Iniciar sesión

    Tiempo cada hora Finiks

    Hoy, 16 Junio, Domingo

    Tiempo Temperatura Precipitaciones Viento Presión Humedad
    00:00 +34°C° 0 mm 4 mps 729 mmHg 16%
    01:00 +32°C° 0 mm 2 mps 729 mmHg 18%
    02:00 +31°C° 0 mm 1 mps 728 mmHg 19%
    03:00 +30°C° 0 mm 1 mps 728 mmHg 20%
    04:00 +30°C° 0 mm 2 mps 728 mmHg 20%
    05:00 +30°C° 0 mm 2 mps 728 mmHg 21%
    06:00 +31°C° 0 mm 2 mps 729 mmHg 20%
    07:00 +32°C° 0 mm 1 mps 729 mmHg 18%
    08:00 +33°C° 0 mm 1 mps 730 mmHg 17%
    09:00 +34°C° 0 mm 1 mps 729 mmHg 15%
    10:00 +36°C° 0 mm 1 mps 729 mmHg 13%
    11:00 +37°C° 0 mm 1 mps 729 mmHg 11%
    12:00 +39°C° 0 mm 1 mps 728 mmHg 11%
    13:00 +40°C° 0 mm 1 mps 728 mmHg 10%
    14:00 +41°C° 0 mm 1 mps 727 mmHg 9%
    15:00 +42°C° 0 mm 2 mps 727 mmHg 9%
    16:00 +42°C° 0 mm 2 mps 726 mmHg 8%
    17:00 +42°C° 0 mm 2 mps 726 mmHg 8%
    18:00 +42°C° 0 mm 3 mps 726 mmHg 8%
    19:00 +41°C° 0 mm 4 mps 726 mmHg 9%
    20:00 +40°C° 0 mm 5 mps 726 mmHg 9%
    21:00 +38°C° 0 mm 4 mps 727 mmHg 11%
    22:00 +36°C° 0 mm 4 mps 727 mmHg 14%
    23:00 +34°C° 0 mm 4 mps 728 mmHg 16%

    Mañana, 17 Junio, Lunes

    Tiempo Temperatura Precipitaciones Viento Presión Humedad
    00:00 +33°C° 0 mm 3 mps 728 mmHg 17%
    01:00 +32°C° 0 mm 2 mps 728 mmHg 17%
    02:00 +31°C° 0 mm 2 mps 728 mmHg 18%
    03:00 +30°C° 0 mm 2 mps 728 mmHg 18%
    04:00 +30°C° 0 mm 2 mps 728 mmHg 17%
    05:00 +29°C° 0 mm 2 mps 728 mmHg 17%
    06:00 +30°C° 0 mm 2 mps 728 mmHg 16%
    07:00 +31°C° 0 mm 2 mps 728 mmHg 15%
    08:00 +32°C° 0 mm 2 mps 729 mmHg 14%
    09:00 +35°C° 0 mm 3 mps 729 mmHg 12%
    10:00 +36°C° 0 mm 3 mps 729 mmHg 10%
    11:00 +38°C° 0 mm 3 mps 729 mmHg 9%
    12:00 +39°C° 0 mm 3 mps 728 mmHg 8%
    13:00 +40°C° 0 mm 3 mps 728 mmHg 7%
    14:00 +42°C° 0 mm 3 mps 727 mmHg 5%
    15:00 +43°C° 0 mm 3 mps 727 mmHg 6%
    16:00 +43°C° 0 mm 3 mps 727 mmHg 6%
    17:00 +44°C° 0 mm 4 mps 726 mmHg 6%
    18:00 +42°C° 0 mm 5 mps 727 mmHg 9%
    19:00 +40°C° 0 mm 7 mps 727 mmHg 12%
    20:00 +38°C° 0 mm 8 mps 727 mmHg 15%
    21:00 +36°C° 0 mm 6 mps 728 mmHg 15%
    22:00 +34°C° 0 mm 5 mps 729 mmHg 15%
    23:00 +33°C° 0 mm 3 mps 729 mmHg 16%

    Pasado mañana, 18 Junio, Martes

    Tiempo Temperatura Precipitaciones Viento Presión Humedad
    00:00 +31°C° 0 mm 2 mps 729 mmHg 17%
    01:00 +30°C° 0 mm 2 mps 729 mmHg 19%
    02:00 +29°C° 0 mm 1 mps 730 mmHg 21%
    03:00 +29°C° 0 mm 1 mps 730 mmHg 21%
    04:00 +28°C° 0 mm 1 mps 730 mmHg 22%
    05:00 +28°C° 0 mm 1 mps 730 mmHg 22%
    06:00 +29°C° 0 mm 1 mps 730 mmHg 20%
    07:00 +31°C° 0 mm 1 mps 731 mmHg 18%
    08:00 +32°C° 0 mm 1 mps 731 mmHg 16%
    09:00 +34°C° 0 mm 2 mps 731 mmHg 14%
    10:00 +36°C° 0 mm 2 mps 731 mmHg 13%
    11:00 +37°C° 0 mm 2 mps 731 mmHg 11%
    12:00 +38°C° 0 mm 2 mps 731 mmHg 10%
    13:00 +39°C° 0 mm 2 mps 730 mmHg 9%
    14:00 +40°C° 0 mm 2 mps 730 mmHg 8%
    15:00 +41°C° 0 mm 2 mps 729 mmHg 8%
    16:00 +41°C° 0 mm 2 mps 729 mmHg 7%
    17:00 +42°C° 0 mm 2 mps 729 mmHg 6%
    18:00 +42°C° 0 mm 4 mps 729 mmHg 7%
    19:00 +40°C° 0 mm 5 mps 729 mmHg 7%
    20:00 +39°C° 0 mm 7 mps 729 mmHg 8%
    21:00 +36°C° 0 mm 6 mps 730 mmHg 8%
    22:00 +34°C° 0 mm 5 mps 730 mmHg 8%
    23:00 +33°C° 0 mm 4 mps 731 mmHg 9%

    19 Junio, Miércoles

    Tiempo Temperatura Precipitaciones Viento Presión Humedad
    00:00 +31°C° 0 mm 3 mps 731 mmHg 10%
    01:00 +30°C° 0 mm 2 mps 731 mmHg 11%
    02:00 +29°C° 0 mm 2 mps 731 mmHg 13%
    03:00 +28°C° 0 mm 1 mps 731 mmHg 13%
    04:00 +28°C° 0 mm 1 mps 731 mmHg 13%
    05:00 +27°C° 0 mm 1 mps 731 mmHg 14%
    06:00 +29°C° 0 mm 1 mps 731 mmHg 12%
    07:00 +30°C° 0 mm 1 mps 732 mmHg 11%
    08:00 +32°C° 0 mm 1 mps 732 mmHg 10%
    09:00 +33°C° 0 mm 1 mps 732 mmHg 9%
    10:00 +34°C° 0 mm 1 mps 732 mmHg 8%
    11:00 +36°C° 0 mm 1 mps 732 mmHg 7%
    12:00 +37°C° 0 mm 1 mps 731 mmHg 7%
    13:00 +39°C° 0 mm 1 mps 730 mmHg 6%
    14:00 +40°C° 0 mm 2 mps 730 mmHg 5%
    15:00 +41°C° 0 mm 2 mps 729 mmHg 5%
    16:00 +42°C° 0 mm 3 mps 729 mmHg 5%
    17:00 +43°C° 0 mm 3 mps 729 mmHg 4%
    18:00 +40°C° 0 mm 3 mps 729 mmHg 5%
    19:00 +39°C° 0 mm 3 mps 729 mmHg 5%
    20:00 +38°C° 0 mm 3 mps 729 mmHg 5%
    21:00 +36°C° 0 mm 4 mps 730 mmHg 6%
    22:00 +35°C° 0 mm 4 mps 730 mmHg 7%
    23:00 +34°C° 0 mm 4 mps 730 mmHg 8%

    20 Junio, Jueves

    Tiempo Temperatura Precipitaciones Viento Presión Humedad
    00:00 +33°C° 0 mm 3 mps 730 mmHg 9%
    01:00 +31°C° 0 mm 2 mps 730 mmHg 10%
    02:00 +30°C° 0 mm 2 mps 729 mmHg 11%
    03:00 +29°C° 0 mm 1 mps 730 mmHg 11%
    04:00 +29°C° 0 mm 1 mps 730 mmHg 12%
    05:00 +28°C° 0 mm 1 mps 730 mmHg 12%
    06:00 +30°C° 0 mm 1 mps 730 mmHg 11%
    07:00 +31°C° 0 mm 1 mps 730 mmHg 9%
    08:00 +33°C° 0 mm 1 mps 730 mmHg 8%
    09:00 +34°C° 0 mm 1 mps 730 mmHg 7%
    10:00 +36°C° 0 mm 1 mps 730 mmHg 7%
    11:00 +37°C° 0 mm 1 mps 730 mmHg 6%
    12:00 +39°C° 0 mm 1 mps 729 mmHg 5%
    13:00 +41°C° 0 mm 1 mps 729 mmHg 5%
    14:00 +42°C° 0 mm 1 mps 728 mmHg 5%
    15:00 +42°C° 0 mm 2 mps 728 mmHg 4%
    16:00 +44°C° 0 mm 3 mps 727 mmHg 4%
    17:00 +45°C° 0 mm 4 mps 727 mmHg 4%
    18:00 +43°C° 0 mm 5 mps 727 mmHg 5%
    19:00 +42°C° 0 mm 5 mps 727 mmHg 6%
    20:00 +40°C° 0 mm 5 mps 727 mmHg 7%
    21:00 +39°C° 0 mm 5 mps 727 mmHg 9%
    22:00 +36°C° 0 mm 5 mps 728 mmHg 11%
    23:00 +35°C° 0 mm 5 mps 728 mmHg 12%

    21 Junio, Viernes

    Tiempo Temperatura Precipitaciones Viento Presión Humedad
    00:00 +34°C° 0 mm 4 mps 728 mmHg 14%
    01:00 +31°C° 0 mm 3 mps 727 mmHg 16%
    02:00 +30°C° 0 mm 2 mps 727 mmHg 17%
    03:00 +29°C° 0 mm 2 mps 727 mmHg 17%
    04:00 +29°C° 0 mm 1 mps 727 mmHg 16%
    05:00 +28°C° 0 mm 1 mps 727 mmHg 16%
    06:00 +30°C° 0 mm 1 mps 728 mmHg 14%
    07:00 +31°C° 0 mm 1 mps 728 mmHg 12%
    08:00 +33°C° 0 mm 1 mps 728 mmHg 10%
    09:00 +35°C° 0 mm 2 mps 728 mmHg 10%
    10:00 +37°C° 0 mm 2 mps 728 mmHg 9%
    11:00 +38°C° 0 mm 3 mps 728 mmHg 9%
    12:00 +40°C° 0 mm 3 mps 727 mmHg 8%
    13:00 +42°C° 0 mm 3 mps 727 mmHg 8%
    14:00 +43°C° 0 mm 4 mps 726 mmHg 8%
    15:00 +43°C° 0 mm 5 mps 726 mmHg 7%
    16:00 +45°C° 0 mm 6 mps 726 mmHg 7%
    17:00 +45°C° 0 mm 7 mps 725 mmHg 6%
    18:00 +43°C° 0 mm 7 mps 725 mmHg 8%
    19:00 +40°C° 0 mm 8 mps 725 mmHg 10%
    20:00 +38°C° 0 mm 9 mps 725 mmHg 11%
    21:00 +36°C° 0 mm 7 mps 726 mmHg 13%
    22:00 +34°C° 0 mm 6 mps 726 mmHg 15%
    23:00 +32°C° 0 mm 4 mps 726 mmHg 16%
    Mostrar más